Flight Track Log - Related Links

Times and Time Zones

All times are in EST time to prevent confusion due to time zone crossing. See the EJA951 flight status page for this flight to view local times or setup timezone preferences in your user account.

Time Position Orientation Groundspeed Altitude Reporting Facility
EST Latitude Longitude Course Direction KTS MPH feet Rate Location/Type
03:12PM 37.4167 -121.9667 332° Northwest 195 224 4,500  Level Northern Cal TRACON
03:13PM 37.4167 -121.9000 90° East 268 308 5,100 2,000 Climbing Northern Cal TRACON
03:15PM 37.3275 -121.8011 139° Southeast 285 328 9,700 2,255 Climbing Oakland Center
03:16PM 37.2617 -121.7275 138° Southeast 312 359 11,000 1,463 Climbing Oakland Center
03:17PM 37.0354 -121.3890 141° Southeast  Level Estimated
03:17PM 37.1822 -121.6408 139° Southeast 370 426 12,700  Level Oakland Center
03:18PM 37.0872 -121.5353 138° Southeast 381 438 14,800 1,694 Climbing Oakland Center
03:19PM 37.0164 -121.4581 139° Southeast 392 451 16,200 1,415 Climbing Oakland Center
03:20PM 36.9356 -121.3656 138° Southeast 392 451 17,700 1,610 Climbing Oakland Center
03:21PM 36.8333 -121.2539 139° Southeast 408 470 19,500 1,645 Climbing Oakland Center
03:22PM 36.7464 -121.1631 140° Southeast 411 473 21,100 1,500 Climbing Oakland Center
03:23PM 36.6581 -121.0689 139° Southeast 416 479 22,600 1,463 Climbing Oakland Center
03:24PM 36.5678 -120.9681 138° Southeast 432 497 24,100 1,561 Climbing Oakland Center
03:25PM 36.4758 -120.8683 139° Southeast 437 503 25,800 1,694 Climbing Oakland Center
03:26PM 36.3836 -120.7672 139° Southeast 441 507 27,600 1,839 Climbing Oakland Center
03:27PM 36.2708 -120.6442 139° Southeast 447 514 29,600 1,610 Climbing Oakland Center
03:28PM 36.1744 -120.5419 139° Southeast 453 521 30,900 683 Climbing Oakland Center
03:29PM 36.0717 -120.4339 140° Southeast 473 544 31,000 48 Climbing Oakland Center
03:30PM 35.9642 -120.3164 138° Southeast 500 575 31,000  Level Oakland Center
03:31PM 35.8561 -120.1997 139° Southeast 511 588 31,000  Level Oakland Center
03:32PM 35.7472 -120.0856 140° Southeast 511 588 31,000  Level Oakland Center
03:33PM 35.6436 -119.9628 136° Southeast 519 597 31,000  Level Oakland Center
03:34PM 35.5719 -119.8144 121° Southeast 502 578 31,000  Level Los Angeles Center
03:35PM 35.5025 -119.6617 119° Southeast 508 585 31,000  Level Los Angeles Center
03:36PM 35.4322 -119.5114 120° Southeast 508 585 31,000  Level Los Angeles Center
03:37PM 35.3633 -119.3611 119° Southeast 505 581 31,000 -97 Level Los Angeles Center
03:38PM 35.2806 -119.1822 120° Southeast 505 581 30,800 -677 Descending Los Angeles Center
03:39PM 35.2117 -119.0344 120° Southeast 501 577 29,600 -1,161 Descending Los Angeles Center
03:40PM 35.1406 -118.8839 120° Southeast 509 586 28,400 -1,161 Descending Los Angeles Center
03:41PM 35.0700 -118.7350 120° Southeast 507 583 27,200 -720 Descending Los Angeles Center
03:43PM 34.9950 -118.5900 122° Southeast 506 582 26,900 -816 Descending Los Angeles Center
03:44PM 34.9000 -118.4517 130° Southeast 502 578 25,500 -1,355 Descending Los Angeles Center
03:45PM 34.8114 -118.3253 130° Southeast 496 571 24,100 -2,274 Descending Los Angeles Center
03:46PM 34.7114 -118.1803 130° Southeast 474 545 20,800 -3,194 Descending Los Angeles Center
03:47PM 34.6333 -118.0650 129° Southeast 453 521 17,500 -1,839 Descending Los Angeles Center
03:48PM 34.5728 -117.9358 120° Southeast 446 513 17,000 -242 Descending Los Angeles Center
03:49PM 34.5128 -117.8067 119° Southeast 445 512 17,000  Level Los Angeles Center
03:50PM 34.4542 -117.6778 119° Southeast 442 509 17,000  Level Los Angeles Center
03:51PM 34.3842 -117.5267 119° Southeast 433 498 17,000  Level Los Angeles Center
03:52PM 34.3289 -117.4044 119° Southeast 438 504 17,000  Level Los Angeles Center
03:53PM 34.2692 -117.2744 119° Southeast 441 507 17,000 -145 Level Los Angeles Center
03:54PM 34.2047 -117.1381 120° Southeast 450 518 16,700 -871 Descending Los Angeles Center
03:55PM 34.1447 -117.0114 120° Southeast 441 507 15,200 -1,306 Descending Los Angeles Center
03:56PM 34.0825 -116.8769 119° Southeast 430 495 14,000 -581 Descending Los Angeles Center
03:57PM 34.0281 -116.7581 119° Southeast 408 470 14,000 -387 Level Los Angeles Center
03:58PM 33.9708 -116.6378 120° Southeast 344 396 13,200 -2,177 Descending Los Angeles Center
03:59PM 33.9361 -116.5503 116° Southeast 299 344 9,500 -2,496 Descending Los Angeles Center
04:00PM 33.9092 -116.4675 111° Southeast 294 338 8,000 -2,082 Descending Los Angeles Center
04:02PM 33.8167 -116.3833 143° Southeast 218 251 3,600 -2,048 Descending Southern California TRACON
04:03PM 33.7833 -116.4333 231° Southwest 173 199 2,300 -1,300 Descending Southern California TRACON
04:04PM 33.8000 -116.4833 292° West 156 180 1,000 -1,300 Descending Southern California TRACON
04:06PM 33.8167 -116.5000 234° Southwest  Level FlightAware Approximate
04:13PM 33.8297 -116.5067 234° Southwest  Level Estimated
04:14PM 33.8297 -116.5067 234° Southwest  Level Estimated

Login

Don't have an account? Register now (free) for customized features, flight alerts, and more!